Weather History for Klamath Falls, OR

Change the Weather History Date:

Tuesday, November 5, 2013

  Actual Average Record
Temperature  
Mean Temperature 35 °F 39 °F  
Max Temperature 47 °F 51 °F 70 °F (1980)
Min Temperature 23 °F 27 °F 14 °F (2011)
Degree Days  
Heating Degree Days 30 26  
Month to date heating degree days 151 126  
Since 1 July heating degree days 1117 1042  
Cooling Degree Days 0 0  
Month to date cooling degree days 0 0  
Year to date cooling degree days 285 169  
Moisture  
Dew Point 35 °F    
Average Humidity 86    
Maximum Humidity 92    
Minimum Humidity 76    
Precipitation  
Precipitation 0.04 in 0.07 in 0.63 in (1994)
Month to date precipitation 0.06 0.35  
Year to date precipitation 4.97 11.67  
Sea Level Pressure  
Sea Level Pressure 30.27 in    
Wind  
Wind Speed 2 mph (SE)    
Max Wind Speed 10 mph    
Max Gust Speed 13 mph    
Visibility 10 miles    
Events Rain , Snow    
T = Trace of Precipitation, MM = Missing Value Source: NWS Daily Summary

Daily Weather History Graph

Daily Weather History Graph

Search for Another Location

Airport:

Trip Planner

Search our weather history database for the weather conditions in past years. The results will help you decide how hot, cold, wet, or windy it might be!

Date:

Astronomy

Nov. 05, 2013 Rise Set
Actual Time 6:45 AM PST 4:55 PM PST
Civil Twilight 6:15 AM PST 5:24 PM PST
Nautical Twilight 5:42 AM PST 5:57 PM PST
Astronomical Twilight 5:09 AM PST 6:30 PM PST
Moon 9:07 AM PST (11/5) 7:00 PM PST (11/5)
Length of Visible Light 11h 08m
Length of Day
10h 10m
Waxing Crescent, 7% of the Moon is Illuminated
Nov 5
Waxing Crescent
Nov 9
First Quarter
Nov 17
Full
Nov 25
Last Quarter
Dec 2
New

Hourly Weather History & Observations

Time (PST) Temp. Windchill Dew Point Humidity Pressure Visibility Wind Dir Wind Speed Gust Speed Precip Events Conditions
12:53 AM 24.1 °F 19.7 °F 21.9 °F 91% 30.23 in 10.0 mi SE 3.5 mph - N/A   Mostly Cloudy
1:53 AM 28.9 °F 25.2 °F 25.0 °F 85% 30.22 in 10.0 mi NNE 3.5 mph - N/A   Partly Cloudy
2:53 AM 28.9 °F - 24.1 °F 82% 30.21 in 10.0 mi Calm Calm - N/A   Mostly Cloudy
3:53 AM 28.9 °F - 25.0 °F 85% 30.22 in 10.0 mi Calm Calm - N/A   Overcast
4:53 AM 30.9 °F - 27.0 °F 85% 30.23 in 10.0 mi Calm Calm - N/A   Overcast
5:53 AM 30.9 °F - 28.0 °F 89% 30.24 in 6.0 mi Calm Calm - 0.00 in Snow Light Snow
6:53 AM 32.0 °F - 30.0 °F 92% 30.25 in 9.0 mi Calm Calm - 0.00 in   Overcast
7:05 AM 33.8 °F - 30.2 °F 87% 30.23 in 8.0 mi Calm Calm - 0.01 in Rain Light Freezing Rain
7:42 AM 33.8 °F - 30.2 °F 87% 30.25 in 10.0 mi Calm Calm - 0.03 in   Overcast
7:53 AM 33.1 °F - 30.9 °F 92% 30.29 in 10.0 mi Calm Calm - 0.03 in   Overcast
8:53 AM 35.1 °F 30.1 °F 32.0 °F 89% 30.29 in 10.0 mi ESE 5.8 mph - 0.01 in Rain Light Rain
9:45 AM 37.4 °F 32.1 °F 33.8 °F 87% 30.26 in 10.0 mi SE 6.9 mph - 0.00 in   Overcast
9:53 AM 37.0 °F 34.5 °F 34.0 °F 89% 30.29 in 10.0 mi SSE 3.5 mph - 0.00 in   Overcast
10:25 AM 39.2 °F 35.9 °F 35.6 °F 87% 30.26 in 10.0 mi Variable 4.6 mph - N/A   Overcast
10:53 AM 39.9 °F 33.9 °F 34.0 °F 79% 30.30 in 10.0 mi SSE 9.2 mph - N/A   Overcast
11:53 AM 41.0 °F 39.0 °F 36.0 °F 82% 30.30 in 10.0 mi Variable 3.5 mph - N/A   Overcast
12:53 PM 43.0 °F 41.3 °F 37.0 °F 80% 30.28 in 10.0 mi East 3.5 mph - N/A   Overcast
1:53 PM 45.0 °F - 37.9 °F 76% 30.25 in 10.0 mi Calm Calm - N/A   Overcast
2:00 PM 44.6 °F - 37.4 °F 76% 30.23 in 10.0 mi Calm Calm - N/A   Overcast
2:53 PM 46.0 °F - 39.0 °F 76% 30.25 in 10.0 mi Calm Calm - N/A   Mostly Cloudy
3:53 PM 46.9 °F - 39.0 °F 74% 30.25 in 10.0 mi Calm Calm - N/A   Overcast
4:53 PM 46.0 °F - 39.9 °F 79% 30.26 in 10.0 mi Calm Calm - N/A   Overcast
5:53 PM 45.0 °F - 39.9 °F 82% 30.27 in 10.0 mi Calm Calm - N/A   Overcast
6:53 PM 46.0 °F - 42.1 °F 86% 30.27 in 10.0 mi Calm Calm - N/A   Overcast
7:41 PM 44.6 °F 43.1 °F 39.2 °F 81% 30.27 in 10.0 mi East 3.5 mph - N/A   Overcast
7:53 PM 43.0 °F - 39.9 °F 89% 30.30 in 10.0 mi Calm Calm - N/A   Overcast
8:26 PM 42.8 °F - 39.2 °F 87% 30.27 in 10.0 mi Calm Calm - N/A   Overcast
8:53 PM 42.1 °F - 39.9 °F 92% 30.30 in 10.0 mi Calm Calm - N/A   Overcast
9:10 PM 42.8 °F 41.1 °F 39.2 °F 87% 30.29 in 10.0 mi South 3.5 mph - N/A   Overcast
9:53 PM 42.1 °F - 39.9 °F 92% 30.31 in 10.0 mi Calm Calm - N/A   Overcast
10:17 PM 39.2 °F 37.0 °F 39.2 °F 100% 30.30 in 10.0 mi SSE 3.5 mph - N/A   Overcast
10:53 PM 39.9 °F - 37.9 °F 93% 30.32 in 10.0 mi Calm Calm - N/A   Overcast
11:53 PM 36.0 °F 33.3 °F 35.1 °F 97% 30.32 in 2.0 mi South 3.5 mph - N/A   Partly Cloudy